Location: Byszew
(52.1813°N, 19.2693°E)
Time: 04:17:22
(UTC+00:00)

Cosmos 1844 - Pass Details

Date: 16 June 2021
Orbit: 823 x 867 km, 70.9° (Epoch: 03 August)

Event Time Altitude Azimuth Distance (km) Brightness Sun altitude
Rises 21:18:59 0° 323° (NW) 3,371 8.4 -12.2°
Reaches altitude 10° 21:21:39 10° 314° (NW) 2,436 7.2 -12.3°
Maximum altitude 21:26:27 31° 254° (WSW) 1,431 4.9 -12.6°
Enters shadow 21:30:51 12° 197° (SSW) 2,299 5.5 -12.8°
